Regional Weather Roundup
Issued by NWS

Home | Current Version | Previous Version | Text Only | Print | Product List | Glossary On
Versions: 1 2 3 4 5 6 7 8 9 10 11 12 13 14 15 16 17 18 19 20 21 22 23 24 25 26 27 28 29 30 31 32 33 34 35 36 37 38 39 40 41 42 43 44 45 46 47 48 49 50
000
ASUS43 KIND 221309
RWRIN

WEATHER ROUNDUP FOR INDIANA
NATIONAL WEATHER SERVICE INDIANAPOLIS IN
800 AM EST WED NOV 22 2017

NOTE: "FAIR" INDICATES FEW OR NO CLOUDS BELOW 12,000 FEET WITH NO
SIGNIFICANT WEATHER AND/OR OBSTRUCTIONS TO VISIBILITY.

* - STATION DOES NOT REPORT WEATHER SUCH AS PRECIPITATION OR FOG.

+ - STATION NOT QUALITY CONTROLLED BY THE NATIONAL WEATHER SERVICE.
    USE DATA WITH CAUTION...ESPECIALLY DEWPOINT AND RELATIVE
    HUMIDITY OBSERVATIONS.

INZ001>003-010>013-019-020-221400-
NORTHWEST INDIANA

CITY           SKY/WX    TMP DP  RH WIND       PRES   REMARKS
GARY /AIRPORT/ PTCLDY    27  16  63 W8        30.34R WCI  18
KNOX *+        CLOUDY    28  23  80 W6        30.30R WCI  22
LA PORTE +     CLOUDY    29  21  72 CALM      30.30R
MICHIGAN CITY+ CLOUDY    32  21  64 NW5       30.30R WCI  27
MONTICELLO +   MOCLDY    23  18  82 NW7       30.30R WCI  15
RENSSELAER +   PTCLDY    23  16  74 W7        30.33R WCI  15
VALPARAISO     CLOUDY    32  21  64 NW5       30.30R WCI  27

$$

LMZ046-743>745-221400-
SOUTHERN LAKE MICHIGAN

STATION/POSITION TIME  TEMP    WIND        PRES    WAVE
                       AIR SEA DIR/SP/G            HT
                 (UTC) (F)     (DEG/KT/KT) (MB)    (FT)
BURNS HARBOR     1240   32     330/ 11/ 15 1026.8R
MICHIGAN CITY    1240   33     330/ 12/ 14   N/A

$$

INZ004-005-014>016-021>024-221400-
NORTH CENTRAL INDIANA

CITY           SKY/WX    TMP DP  RH WIND       PRES   REMARKS
ELKHART        CLOUDY    30  21  69 N6        30.28R WCI  24
GOSHEN         CLOUDY    31  22  69 N9        30.27R WCI  23
LOGANSPORT +   CLOUDY    27  19  74 W7        30.31R WCI  19
PERU/GRISSOM   CLOUDY    26  21  79 NW8       30.29R WCI  18
ROCHESTER +    CLOUDY    32  25  74 W6        30.29R WCI  26
SOUTH BEND     CLOUDY    30  23  75 NW6       30.28R WCI  24
WARSAW +       CLOUDY    32  23  69 NW8       30.27R WCI  25

$$

INZ006>009-017-018-025>027-221400-
NORTHEAST INDIANA

CITY           SKY/WX    TMP DP  RH WIND       PRES   REMARKS
AUBURN +       CLOUDY    32  23  69 N10       30.26R WCI  24
FORT WAYNE     MOCLDY    34  25  69 N6        30.26R WCI  29
HUNTINGTON +   CLOUDY    30  25  81 NW3       30.27R
KENDALLVILLE + CLOUDY    30  22  73 N8        30.26R WCI  22

$$

INZ028-029-035-036-043>045-051>053-221400-
WEST CENTRAL INDIANA

CITY           SKY/WX    TMP DP  RH WIND       PRES   REMARKS
CRAWFORDSVL +  CLEAR     20  17  86 MISG      30.28
GREENCASTLE +  CLEAR     25  18  74 N6        30.31R WCI  18
LAFAYETTE      PTCLDY    23  17  78 NW10      30.33R WCI  12
TERRE HAUTE    PTCLDY    25  18  74 NW6       30.34R WCI  18

$$

INZ030>032-037>040-046>048-054>057-064-065-221400-
CENTRAL INDIANA

CITY           SKY/WX    TMP DP  RH WIND       PRES   REMARKS
COLUMBUS       CLEAR     27  21  80 CALM      30.30R
FISHERS *+     CLEAR     23  23 100 NW5       30.30R WCI  17
FRANKFORT +    PTCLDY    26  21  81 W7        30.31R WCI  18
INDIANAPOLIS   PTCLDY    24  18  77 NW12      30.30R WCI  13
-EAGLE CREEK   CLEAR     26  18  71 NW10      30.29R WCI  16
KOKOMO +       CLOUDY    27  21  78 W8        30.30R WCI  19
MARION +       LGT SNOW  28  24  85 NW7       30.28R WCI  20
MT COMFORT *+  CLEAR     23  23 100 NW7       30.28R WCI  15
SHELBYVILLE    CLEAR     25  19  78 NW9       30.28R WCI  15
ZIONSVILLE +   CLEAR     23  19  83 NW7       30.30R WCI  15

$$

INZ033-034-041-042-049-050-058-059-221400-
EAST CENTRAL INDIANA

CITY           SKY/WX    TMP DP  RH WIND       PRES   REMARKS
MUNCIE         CLEAR     28  22  78 NW7       30.26R WCI  21
RICHMOND +     MOCLDY    28  27  93 NW6       30.25R WCI  22

$$

INZ060-061-067>069-081>083-085>088-221400-
SOUTHWEST INDIANA

CITY           SKY/WX    TMP DP  RH WIND       PRES   REMARKS
EVANSVILLE     CLEAR     27  23  85 NW7       30.36R WCI  19
HUNTINGBURG +  CLEAR     26  23  88 MISG      30.34R
WASHINGTON +   PTCLDY    25  20  81 NW5       30.34R WCI  19

$$

INZ062-063-066-070>080-084-089>092-221400-
SOUTH CENTRAL AND SOUTHEAST INDIANA

CITY           SKY/WX    TMP DP  RH WIND       PRES   REMARKS
BEDFORD +      CLEAR     27  21  80 NW3       30.31R
BLOOMINGTON    CLEAR     24  18  77 CALM      30.30R
MADISON *+     PTCLDY    28  23  80 CALM      30.30R
NORTH VERNON + CLEAR     23  19  86 CALM      30.30R
SEYMOUR +      CLEAR     27  21  80 NW5       30.31R WCI  21

$$





USA.gov is the U.S. government's official web portal to all federal, state and local government web resources and services.